Port Hope, MI

5:46 AM EDT on September 24, 2017 (GMT -0400)
Port Hope

Weather History for KP58 - March, 2014

Change the Weather History Date:

Saturday, March 29, 2014

  Actual Average Record
Temperature  
Mean Temperature 31 °F -  
Max Temperature 34 °F 41 °F 57 °F (1998)
Min Temperature 28 °F 30 °F 16 °F (2011)
Degree Days  
Heating Degree Days 34    
Moisture  
Dew Point 27 °F    
Average Humidity 83    
Maximum Humidity 88    
Minimum Humidity 75    
Precipitation  
Precipitation 0.00 in - - ()
Sea Level Pressure  
Sea Level Pressure 30.23 in    
Wind  
Wind Speed 11 mph (NNE)    
Max Wind Speed 18 mph    
Max Gust Speed -    
Averages and records for this station are not official NWS values.
T = Trace of Precipitation, MM = Missing Value Source: NWS Daily Summary

Daily Weather History Graph

Daily Weather History Graph

Search for Another Location

Airport or City:

Trip Planner

Search our weather history database for the weather conditions in past years. The results will help you decide how hot, cold, wet, or windy it might be!

Date:

Astronomy

Mar. 29, 2014 Rise Set
Actual Time 7:17 AM EDT 7:54 PM EDT
Civil Twilight 6:48 AM EDT 8:23 PM EDT
Nautical Twilight 6:14 AM EDT 8:58 PM EDT
Astronomical Twilight 5:39 AM EDT 9:33 PM EDT
Moon 6:28 AM EDT (3/29) 6:57 PM EDT (3/29)
Length of Visible Light 13h 34m
Length of Day
12h 36m
Waning Crescent, 2% of the Moon is Illuminated
Mar 29
Waning Crescent
Mar 30
New
Apr 7
First Quarter
Apr 15
Full
Apr 22
Last Quarter

Hourly Weather History & Observations

Time (EDT) Temp. Windchill Dew Point Humidity Pressure Visibility Wind Dir Wind Speed Gust Speed Precip Events Conditions
12:51 AM 33.1 °F 26.9 °F 28.0 °F 82% 30.23 in - North 6.9 mph - N/A   Unknown
1:51 AM 32.0 °F 23.0 °F 27.0 °F 82% 30.22 in - NNE 11.5 mph - N/A   Unknown
2:51 AM 32.0 °F 23.6 °F 27.0 °F 82% 30.22 in - North 10.4 mph - N/A   Unknown
3:51 AM 32.0 °F 23.6 °F 28.0 °F 85% 30.22 in - NNE 10.4 mph - N/A   Unknown
4:51 AM 32.0 °F 24.8 °F 28.9 °F 88% 30.24 in - NE 8.1 mph - N/A   Unknown
5:51 AM 32.0 °F - 28.9 °F 88% 30.27 in - Calm Calm - N/A   Unknown
6:51 AM 32.0 °F 25.6 °F 28.9 °F 88% 30.26 in - NE 6.9 mph - N/A   Unknown
7:51 AM 32.0 °F 22.1 °F 28.9 °F 88% 30.25 in - NNE 13.8 mph - N/A   Unknown
8:51 AM 32.0 °F 22.1 °F 28.9 °F 88% 30.26 in - NNE 13.8 mph - N/A   Unknown
9:51 AM 32.0 °F 20.8 °F 28.0 °F 85% 30.25 in - NE 17.3 mph - N/A   Unknown
10:51 AM 32.0 °F 22.1 °F 28.0 °F 85% 30.27 in - NE 13.8 mph - N/A   Unknown
11:51 AM 32.0 °F 22.5 °F 28.0 °F 85% 30.26 in - NE 12.7 mph - N/A   Unknown
12:51 PM 32.0 °F 22.1 °F 28.0 °F 85% 30.26 in - NE 13.8 mph - N/A   Unknown
1:51 PM 34.0 °F 24.2 °F 28.9 °F 82% 30.24 in - NNE 15.0 mph - N/A   Unknown
2:51 PM 32.0 °F 20.5 °F 27.0 °F 82% 30.21 in - NNE 18.4 mph - N/A   Unknown
3:51 PM 32.0 °F 21.2 °F 27.0 °F 82% 30.19 in - NNE 16.1 mph - N/A   Unknown
4:51 PM 32.0 °F 21.2 °F 27.0 °F 82% 30.19 in - NNE 16.1 mph - N/A   Unknown
5:51 PM 32.0 °F 21.2 °F 27.0 °F 82% 30.18 in - North 16.1 mph - N/A   Unknown
6:51 PM 30.9 °F 19.8 °F 27.0 °F 85% 30.19 in - NNE 16.1 mph - N/A   Unknown
7:51 PM 30.9 °F 20.7 °F 27.0 °F 85% 30.21 in - North 13.8 mph - N/A   Unknown
8:51 PM 30.9 °F 19.4 °F 25.0 °F 79% 30.21 in - NNE 17.3 mph - N/A   Unknown
9:51 PM 30.0 °F 21.7 °F 23.0 °F 75% 30.22 in - North 9.2 mph - N/A   Unknown
10:51 PM 28.9 °F 21.9 °F 21.9 °F 75% 30.22 in - North 6.9 mph - N/A   Unknown
11:51 PM 28.9 °F 21.1 °F 21.9 °F 75% 30.21 in - North 8.1 mph - N/A   Unknown